Change the Weather History Date:

Friday, April 27, 2012

  Actual Average Record
Temperature  
Mean Temperature 44 °F 47 °F  
Max Temperature 55 °F 60 °F 82 °F (1910)
Min Temperature 33 °F 34 °F 16 °F (1984)
Degree Days  
Heating Degree Days 21 18  
Month to date heating degree days 405 583  
Since 1 July heating degree days 6384 7202  
Cooling Degree Days 0 0  
Month to date cooling degree days 1 0  
Year to date cooling degree days 1 0  
Moisture  
Dew Point 16 °F    
Average Humidity 41    
Maximum Humidity 65    
Minimum Humidity 16    
Precipitation  
Precipitation 0.00 in 0.08 in 0.59 in (1917)
Month to date precipitation 0.99 1.64  
Year to date precipitation 2.66 3.79  
Snow  
Snow 0.00 in 0.50 in - ()
Month to date snowfall 4.1 15.3  
Since 1 July snowfall 63.3 85.0  
Snow Depth 0.00 in    
Sea Level Pressure  
Sea Level Pressure 29.67 in    
Wind  
Wind Speed 15 mph (West)    
Max Wind Speed 37 mph    
Max Gust Speed 48 mph    
Visibility 10 miles    
Events      
T = Trace of Precipitation, MM = Missing Value Source: NWS Daily Summary

Daily Weather History Graph

Daily Weather History Graph

Search for Another Location

Airport or City:

Trip Planner

Search our weather history database for the weather conditions in past years. The results will help you decide how hot, cold, wet, or windy it might be!

Date:

Astronomy

Apr. 27, 2012 Rise Set
Actual Time 6:13 AM MDT 8:11 PM MDT
Civil Twilight 5:43 AM MDT 8:42 PM MDT
Nautical Twilight 5:06 AM MDT 9:19 PM MDT
Astronomical Twilight 4:25 AM MDT 10:00 PM MDT
Moon 10:53 AM MDT (4/27) 1:02 AM MDT (4/27)
Length of Visible Light 14h 58m
Length of Day
13h 57m
Waxing Crescent, 34% of the Moon is Illuminated
Apr 27
Waxing Crescent
Apr 29
First Quarter
May 5
Full
May 12
Last Quarter
May 20
New

Hourly Weather History & Observations

Time (MDT) Temp. Windchill Dew Point Humidity Pressure Visibility Wind Dir Wind Speed Gust Speed Precip Events Conditions
12:53 AM 53.1 °F - 36.0 °F 52% 29.39 in 10.0 mi Calm Calm - N/A   Clear
1:53 AM 53.1 °F - 37.0 °F 55% 29.39 in 10.0 mi Calm Calm - N/A   Partly Cloudy
2:53 AM 50.0 °F - 37.9 °F 63% 29.41 in 10.0 mi NNW 10.4 mph - N/A   Scattered Clouds
3:53 AM 46.9 °F - 36.0 °F 66% 29.47 in 10.0 mi Variable 4.6 mph - N/A   Clear
4:53 AM 48.9 °F - 24.1 °F 38% 29.46 in 10.0 mi West 12.7 mph - N/A   Clear
5:53 AM 46.0 °F 39.6 °F 23.0 °F 40% 29.56 in 10.0 mi WSW 15.0 mph 25.3 mph N/A   Clear
6:53 AM 44.1 °F 36.5 °F 18.0 °F 35% 29.61 in 10.0 mi WSW 17.3 mph 31.1 mph N/A   Clear
7:53 AM 46.0 °F 37.6 °F 16.0 °F 30% 29.64 in 10.0 mi WSW 24.2 mph 35.7 mph N/A   Clear
8:40 AM 46.4 °F 42.4 °F 12.2 °F 25% 29.77 in 10.0 mi NNW 8.1 mph 26.5 mph N/A   Clear
8:53 AM 46.0 °F 41.9 °F 10.9 °F 24% 29.66 in 10.0 mi NNW 8.1 mph 26.5 mph N/A   Partly Cloudy
9:53 AM 46.9 °F - 5.0 °F 18% 29.65 in 10.0 mi West 12.7 mph 27.6 mph N/A   Clear
10:13 AM 48.2 °F - 6.8 °F 19% 29.76 in 10.0 mi WSW 13.8 mph 33.4 mph N/A   Clear
10:53 AM 48.9 °F - 5.0 °F 17% 29.64 in 10.0 mi West 20.7 mph 42.6 mph N/A   Clear
11:53 AM 50.0 °F - 9.0 °F 19% 29.65 in 10.0 mi SW 9.2 mph 21.9 mph N/A   Clear
12:29 PM 50.0 °F - 10.4 °F 20% 29.77 in 10.0 mi WSW 28.8 mph 41.4 mph N/A   Scattered Clouds
12:53 PM 50.0 °F - 12.9 °F 23% 29.68 in 10.0 mi WSW 32.2 mph 39.1 mph N/A   Clear
1:53 PM 48.9 °F - 16.0 °F 27% 29.69 in 10.0 mi WSW 36.8 mph 47.2 mph N/A   Clear
2:53 PM 50.0 °F - 12.9 °F 23% 29.69 in 10.0 mi West 29.9 mph 39.1 mph N/A   Clear
3:53 PM 51.1 °F - 12.9 °F 22% 29.70 in 10.0 mi West 26.5 mph 35.7 mph N/A   Clear
4:53 PM 50.0 °F - 10.0 °F 20% 29.70 in 10.0 mi West 25.3 mph 38.0 mph N/A   Clear
5:53 PM 50.0 °F - 9.0 °F 19% 29.74 in 10.0 mi West 16.1 mph 35.7 mph N/A   Clear
6:53 PM 48.0 °F - 12.0 °F 24% 29.77 in 10.0 mi West 18.4 mph 25.3 mph N/A   Clear
7:53 PM 44.1 °F 37.7 °F 12.9 °F 28% 29.81 in 10.0 mi West 12.7 mph 20.7 mph N/A   Scattered Clouds
8:53 PM 42.1 °F 36.1 °F 10.0 °F 27% 29.84 in 10.0 mi West 10.4 mph 17.3 mph N/A   Clear
9:53 PM 39.0 °F 33.4 °F 10.0 °F 30% 29.87 in 10.0 mi WSW 8.1 mph - N/A   Clear
10:53 PM 37.0 °F 29.8 °F 10.9 °F 34% 29.87 in 10.0 mi WSW 10.4 mph - N/A   Clear
11:53 PM 37.0 °F 32.4 °F 10.9 °F 34% 29.87 in 10.0 mi West 5.8 mph - N/A   Clear